[[{"header":{"parameterUnit":"m.s-1","parameterCategory":1,"la1":30.2991,"la2":30.254,"lo1":-89.0895,"lo2":-89.0444,"dy":0.0017,"dx":0.0017,"nx":28,"ny":28,"refTime":"2024-04-20T03:00:00:Z","depth":0,"parameterNumber":2,"parameterNumberName":"U-component_of_WINDS"},"data":[0,0,0,0,0,0,0,0,0,0,0,0,0,0,0,0,0,0,0,0,0,0,0,0,0,0,0,0,0,0,0,0,0,0,0,0,0,0,0,0,0,0,0,0,0,0,0,0,0,0,0,0,0,0,0,0,0,0,1.0596,1.0598,0,1.0779,1.0781,1.0783,1.0842,1.0841,1.084,1.0839,1.1035,1.104,1.1046,0,0,0,0,0,0,0,0,0,0,0,0,0,1.0303,1.0308,1.0596,1.0598,1.06,1.0779,1.0781,1.0784,1.0842,1.0841,1.084,1.0839,1.1033,1.104,1.1047,0,0,0,0,0,0,0,0,0,0,0,0,0,1.0453,1.0309,1.0595,1.0651,1.0657,1.0778,1.0782,1.0785,1.0842,1.0841,1.084,1.0839,1.103,1.1039,1.1048,1.1129,0,0,1.1075,1.1079,0,0,0,0,0,0,0,0,1.0444,1.0463,1.064,1.0647,1.0655,1.0786,1.075,1.09,1.0843,1.0772,1.0839,1.0838,1.0953,1.0969,1.1006,1.1138,1.1147,1.1076,1.1082,1.1085,1.1088,0,0,0,0,0,0,0,1.0434,1.0456,1.0669,1.0643,1.0652,1.0669,1.0689,1.0779,1.0868,1.0778,1.0783,1.0804,1.0957,1.0997,1.1011,1.115,1.1076,1.1084,1.1089,1.1093,1.136,1.1362,0,0,0,0,0,0,1.0413,1.0447,1.0663,1.0674,1.0544,1.0675,1.0697,1.0745,1.0867,1.0884,1.0804,1.0806,1.0983,1.1001,1.1018,1.1123,1.1085,1.1094,1.1099,1.1358,1.136,1.1362,0,0,0,0,0,0,1.0406,1.0431,1.0655,1.0562,1.0591,1.0681,1.0735,1.075,1.079,1.0887,1.0904,1.0828,1.0982,1.1006,1.1101,1.113,1.1098,1.1106,1.1356,1.1359,1.1361,1.1332,0,0,0,0,0,0,1.0398,1.0429,1.0459,1.0562,1.0596,1.0733,1.0737,1.0754,1.0804,1.0808,1.0914,1.093,1.0983,1.1087,1.111,1.1142,1.1113,1.1354,1.1358,1.1361,1.133,1.1333,1.1335,0,0,0,0,0,1.0387,1.0444,1.046,1.0486,1.0635,1.0734,1.0754,1.0811,1.0806,1.0839,1.0901,1.0927,1.1123,1.1097,1.1123,1.1158,1.1353,1.1357,1.136,1.1329,1.1332,1.1335,0,0,0,0,0,0,1.0345,1.0459,1.0478,1.0569,1.0641,1.0744,1.0786,1.0813,1.0889,1.0889,1.0959,1.0983,1.1074,1.1126,1.1094,1.1244,1.1239,1.1249,1.1207,1.1211,1.1213,1.1199,1.1121,0,0,0,0,0,1.0346,1.0414,1.0511,1.0583,1.0618,1.0696,1.0741,1.0779,1.0857,1.0889,1.0958,1.1035,1.1115,1.1165,1.1243,1.1338,1.1363,1.1375,1.1377,1.1379,1.1386,1.1442,1.1449,1.1375,1.1375,1.1375,0,0,1.035,1.042,1.046,1.0576,1.0637,1.0708,1.0721,1.0796,1.0851,1.0901,1.0995,1.1049,1.114,1.1235,1.1281,1.1281,1.1412,1.1384,1.1384,1.1391,1.1447,1.1454,1.146,1.1377,1.1377,1.1377,0,0,1.0393,1.0452,1.0519,1.0579,1.0669,1.072,1.0736,1.0835,1.0872,1.0967,1.1006,1.1073,1.1208,1.1271,1.1321,1.1389,1.1416,1.1413,1.1425,1.1478,1.1484,1.149,1.1515,1.1524,1.142,1.1419,1.1419,0,1.0387,1.0494,1.0551,1.0624,1.0675,1.0721,1.0791,1.0847,1.0959,1.0995,1.0993,1.1163,1.1227,1.1339,1.1355,1.1394,1.1416,1.1401,1.1478,1.1484,1.149,1.1516,1.1525,1.1418,1.1419,1.1419,1.1419,0,1.0483,1.0557,1.06,1.0705,1.0761,1.0832,1.0902,1.0953,1.0986,1.1038,1.1135,1.1214,1.1309,1.1338,1.1372,1.1456,1.1453,1.1464,1.1461,1.1495,1.1521,1.1531,1.1417,1.1417,1.1418,1.1418,0,0,1.0505,1.064,1.0655,1.0704,1.0807,1.0866,1.094,1.1031,1.1074,1.115,1.1216,1.1328,1.1339,1.1395,1.1437,1.1483,1.1534,1.1489,1.1492,1.1496,1.1633,1.1625,1.1635,1.1552,1.1554,1.1556,1.1626,0,1.0563,1.0694,1.0748,1.0856,1.0926,1.0971,1.1036,1.1108,1.1159,1.1228,1.1285,1.1364,1.1371,1.1406,1.1454,1.1517,1.1563,1.1513,1.1616,1.1619,1.1593,1.1648,1.164,1.1702,1.1636,1.1637,1.1639,0,1.0648,1.0722,1.0836,1.0931,1.0962,1.1019,1.1108,1.1172,1.1255,1.1289,1.1352,1.1391,1.1473,1.1463,1.1579,1.1544,1.159,1.1628,1.1631,1.1645,1.1632,1.1664,1.1724,1.1733,1.1655,1.1653,1.1652,0,1.0654,1.0783,1.0868,1.0908,1.1021,1.106,1.1109,1.1191,1.1242,1.1321,1.1355,1.1442,1.1491,1.1559,1.1621,1.1608,1.1732,1.1727,1.1765,1.1763,1.179,1.1787,1.1858,1.1816,1.1816,1.1816,1.1816,0,1.0714,1.0782,1.0872,1.0925,1.1004,1.1066,1.1143,1.1196,1.1268,1.1333,1.1378,1.1439,1.1517,1.1589,1.1639,1.1728,1.1749,1.1781,1.1794,1.1778,1.1774,1.181,1.1808,1.1819,1.1818,1.1818,1.1817,0,1.0735,1.0798,1.0894,1.0992,1.1018,1.1072,1.1158,1.1212,1.1264,1.1347,1.137,1.1454,1.1541,1.1609,1.1723,1.1757,1.1851,1.1865,1.1822,1.1829,1.1864,1.186,1.1961,1.1979,1.1923,1.1924,1.1924,0,1.0769,1.0822,1.0926,1.0972,1.102,1.1093,1.1146,1.121,1.1263,1.1362,1.1405,1.1494,1.1569,1.1706,1.1779,1.1867,1.1884,1.1913,1.1898,1.188,1.1886,1.1883,1.1889,1.1916,1.1916,1.1916,1.1916,0,1.0824,1.0852,1.0925,1.1008,1.1069,1.1139,1.121,1.1245,1.1323,1.1381,1.1469,1.1527,1.1642,1.1732,1.1827,1.1881,1.1913,1.192,1.1934,1.1919,1.1893,1.1909,1.1829,1.1918,1.1918,1.1918,1.1918,1.1918,1.0854,1.0904,1.0984,1.1064,1.1124,1.1189,1.1244,1.1303,1.1377,1.1475,1.1508,1.16,1.1684,1.1814,1.1869,1.1943,1.1945,1.1964,1.197,1.1974,1.1973,1.1879,1.196,1.1961,1.1961,1.1961,1.1961,0,1.0912,1.0966,1.1038,1.1135,1.1198,1.1219,1.1299,1.1352,1.143,1.1505,1.1577,1.1679,1.1766,1.1845,1.1937,1.1981,1.1998,1.2003,1.2001,1.2013,1.1965,1.1945,1.1988,1.1988,1.1988,1.1988,1.1988,1.1988,1.095,1.1036,1.1074,1.119,1.1245,1.1332,1.1376,1.1438,1.1497,1.1608,1.168,1.173,1.1807,1.1905,1.1986,1.2007,1.204,1.2041,1.2067,1.202,1.2017,1.2013,1.1995,1.2047,1.2048,1.2109,1.211,1.211]},{"header":{"parameterUnit":"m.s-1","parameterCategory":1,"la1":30.2991,"la2":30.254,"lo1":-89.0895,"lo2":-89.0444,"dy":0.0017,"dx":0.0017,"nx":28,"ny":28,"refTime":"2024-04-20T03:00:00:Z","depth":0,"parameterNumber":3,"parameterNumberName":"V-component_of_WINDS"},"data":[0,0,0,0,0,0,0,0,0,0,0,0,0,0,0,0,0,0,0,0,0,0,0,0,0,0,0,0,0,0,0,0,0,0,0,0,0,0,0,0,0,0,0,0,0,0,0,0,0,0,0,0,0,0,0,0,0,0,3.4588,3.4589,0,3.4661,3.4662,3.4663,3.463,3.4629,3.4627,3.4625,3.4693,3.4697,3.47,0,0,0,0,0,0,0,0,0,0,0,0,0,3.4415,3.4419,3.4588,3.4589,3.459,3.4661,3.4662,3.4663,3.4631,3.4629,3.4626,3.4624,3.4692,3.4696,3.47,0,0,0,0,0,0,0,0,0,0,0,0,0,3.449,3.442,3.4588,3.4583,3.4583,3.4661,3.4662,3.4664,3.4631,3.4628,3.4626,3.4623,3.4691,3.4696,3.4701,3.4787,0,0,3.4717,3.4719,0,0,0,0,0,0,0,0,3.4485,3.4496,3.4583,3.4583,3.4584,3.4634,3.4626,3.4705,3.4632,3.4613,3.4625,3.4622,3.4675,3.4682,3.4701,3.479,3.4793,3.4717,3.4721,3.4723,3.4724,0,0,0,0,0,0,0,3.448,3.4493,3.4617,3.4584,3.4585,3.4575,3.4582,3.4641,3.4658,3.4614,3.4612,3.4621,3.4675,3.4696,3.4702,3.4794,3.4717,3.4722,3.4725,3.4727,3.4959,3.4962,0,0,0,0,0,0,3.4476,3.4489,3.4615,3.4619,3.4527,3.458,3.4589,3.4621,3.4657,3.466,3.4624,3.462,3.4689,3.4696,3.4705,3.481,3.4723,3.4728,3.4731,3.4956,3.496,3.4963,0,0,0,0,0,0,3.4473,3.4488,3.4612,3.4553,3.4569,3.4586,3.4622,3.4623,3.4645,3.4665,3.4667,3.4643,3.4687,3.4697,3.4768,3.4812,3.473,3.4735,3.4953,3.4957,3.4962,3.5019,0,0,0,0,0,0,3.4468,3.4487,3.452,3.4555,3.4572,3.4675,3.4625,3.4627,3.4654,3.465,3.4683,3.4686,3.4685,3.476,3.4773,3.4817,3.4739,3.4949,3.4955,3.496,3.5014,3.5025,3.5035,0,0,0,0,0,3.4462,3.4532,3.4522,3.4538,3.4615,3.4678,3.4687,3.4688,3.4658,3.4692,3.4705,3.4684,3.4805,3.4768,3.4782,3.4828,3.4946,3.4953,3.496,3.5009,3.5023,3.5035,0,0,0,0,0,0,3.4499,3.4536,3.4526,3.4609,3.4641,3.4672,3.4715,3.4703,3.4741,3.4735,3.4732,3.474,3.4813,3.4827,3.4786,3.4914,3.4871,3.4881,3.4903,3.4917,3.4927,3.4923,3.4743,0,0,0,0,0,3.4518,3.4568,3.4596,3.4667,3.4684,3.4697,3.4724,3.4722,3.4754,3.4766,3.4784,3.4814,3.4859,3.4888,3.493,3.5015,3.5022,3.5054,3.5065,3.5074,3.5083,3.5131,3.5146,3.4986,3.4986,3.4986,0,0,3.4555,3.4581,3.4613,3.4675,3.47,3.4751,3.4708,3.4763,3.48,3.4774,3.4843,3.4857,3.489,3.4969,3.5005,3.4983,3.5129,3.5082,3.5089,3.5094,3.514,3.5155,3.5168,3.499,3.499,3.4989,0,0,3.465,3.4675,3.4738,3.4765,3.4803,3.4812,3.4827,3.4861,3.4871,3.494,3.4922,3.4965,3.5042,3.5067,3.509,3.5198,3.5181,3.5211,3.5268,3.5315,3.5328,3.5339,3.5379,3.5394,3.522,3.522,3.522,0,3.4692,3.477,3.4771,3.483,3.4858,3.4839,3.4903,3.4927,3.4976,3.4996,3.4972,3.507,3.509,3.5176,3.5203,3.5221,3.5238,3.5208,3.5326,3.5337,3.5348,3.5386,3.5401,3.5223,3.5223,3.5223,3.5222,0,3.482,3.4874,3.492,3.4973,3.5006,3.5066,3.5076,3.5109,3.5105,3.5115,3.5187,3.5212,3.526,3.5279,3.5274,3.5365,3.5351,3.5326,3.5282,3.5367,3.5403,3.5417,3.5229,3.5227,3.5226,3.5225,0,0,3.494,3.4995,3.5012,3.5037,3.5079,3.512,3.5179,3.5229,3.5259,3.5293,3.5343,3.541,3.5389,3.5414,3.5411,3.5453,3.5539,3.5423,3.5424,3.5446,3.5643,3.5663,3.568,3.5528,3.5531,3.5533,3.5641,0,3.504,3.5148,3.5152,3.5249,3.5301,3.5284,3.5336,3.5367,3.5379,3.5423,3.5435,3.5483,3.545,3.5467,3.5506,3.552,3.5579,3.5512,3.5574,3.5577,3.5569,3.5699,3.5719,3.582,3.5655,3.5658,3.5659,0,3.5171,3.5214,3.5318,3.5356,3.5378,3.5425,3.5472,3.5514,3.5549,3.5555,3.5586,3.5577,3.5637,3.5591,3.5674,3.5629,3.5654,3.5665,3.5669,3.5676,3.5624,3.571,3.5852,3.5868,3.5681,3.5679,3.5678,0,3.5251,3.5334,3.5408,3.5429,3.5475,3.5509,3.5529,3.5561,3.5592,3.5632,3.5652,3.5697,3.5723,3.5758,3.5762,3.5728,3.5846,3.5799,3.5853,3.5853,3.5879,3.5878,3.6028,3.5893,3.5893,3.5892,3.5892,0,3.5363,3.5428,3.5446,3.5491,3.5563,3.5567,3.5637,3.5654,3.5684,3.5731,3.5718,3.5763,3.5765,3.5811,3.5814,3.5883,3.5894,3.59,3.59,3.5902,3.5902,3.592,3.5914,3.5896,3.5895,3.5895,3.5894,0,3.5465,3.5479,3.5559,3.5597,3.5608,3.566,3.5691,3.5734,3.5746,3.5806,3.5821,3.5838,3.5891,3.5899,3.596,3.5962,3.6046,3.6038,3.6036,3.6035,3.6089,3.6084,3.6257,3.6281,3.6129,3.613,3.6131,0,3.5536,3.5586,3.5631,3.5664,3.5687,3.5739,3.5771,3.5776,3.581,3.5855,3.5893,3.5946,3.5988,3.6074,3.6091,3.6138,3.6132,3.6189,3.6138,3.614,3.6135,3.6133,3.6139,3.6199,3.6201,3.6202,3.6203,0,3.5662,3.5668,3.5716,3.5769,3.5808,3.5849,3.5886,3.5913,3.5923,3.5962,3.6018,3.6051,3.6116,3.6168,3.6216,3.6234,3.6221,3.6219,3.6234,3.6238,3.6235,3.6239,3.6064,3.6215,3.6214,3.6213,3.6213,3.6212,3.5752,3.5797,3.5837,3.5892,3.5922,3.5958,3.6002,3.6021,3.6068,3.6124,3.6123,3.6185,3.622,3.6283,3.6305,3.6352,3.6333,3.6355,3.636,3.6366,3.6373,3.6227,3.636,3.636,3.636,3.6359,3.6359,0,3.5879,3.5905,3.5956,3.6012,3.6055,3.6041,3.6083,3.612,3.6176,3.6211,3.6254,3.6319,3.6371,3.6393,3.6444,3.6478,3.6473,3.6491,3.6489,3.6494,3.6385,3.6369,3.6494,3.6494,3.6494,3.6494,3.6494,3.6494,3.5951,3.6027,3.6038,3.6129,3.6153,3.6216,3.6242,3.6275,3.6304,3.6379,3.6423,3.6438,3.6468,3.6521,3.6567,3.6572,3.6592,3.6614,3.6616,3.6515,3.6501,3.6488,3.6472,3.6617,3.6618,3.6721,3.6721,3.6722]}]]